EW4692 Weather Reports


time (UTC)temp
F
wind
direction
speed
knots
gust
knots
rain 1hr
in
rain 24hr
in
rain mn
in
humidity
%
barometer
mb
20260506144705 75 277 7.8 14.8 0.00 0.04 0.00 27 1009.9
20260506144501 74 325 6.1 14.8 0.00 0.04 0.00 27 1010.2
20260506144205 75 252 8.7 14.8 0.00 0.04 0.00 26 1009.9
20260506143705 75 240 6.1 13.0 0.00 0.04 0.00 27 1009.9
20260506143205 75 273 4.3 11.3 0.00 0.04 0.00 28 1010.0
20260506143003 75 161 4.3 10.4 0.00 0.04 0.00 28 1010.4
20260506142705 75 327 5.2 13.9 0.00 0.04 0.00 28 1010.0
20260506141705 75 213 7.0 15.6 0.00 0.04 0.00 28 1010.0
20260506141605 74 305 6.1 15.6 0.00 0.04 0.00 27 1010.4
20260506141500 74 255 7.0 15.6 0.00 0.04 0.00 27 1010.4
20260506141205 75 240 8.7 15.6 0.00 0.04 0.00 26 1010.0
20260506140205 76 294 7.8 13.9 0.00 0.04 0.00 25 1010.2
20260506140124 75 277 8.7 13.0 0.00 0.04 0.00 25 1010.5
20260506134706 76 37 7.0 16.5 0.00 0.04 0.00 25 1010.3
20260506134600 75 240 3.5 15.6 0.00 0.04 0.00 25 1010.5
20260506133705 76 262 8.7 16.5 0.00 0.04 0.00 26 1010.3
20260506133206 76 325 7.8 15.6 0.00 0.04 0.00 26 1010.3
20260506133104 75 321 7.8 16.5 0.00 0.04 0.00 26 1010.6
20260506132705 76 277 7.8 14.8 0.00 0.04 0.00 28 1010.3
20260506132206 76 276 8.7 14.8 0.00 0.04 0.00 28 1010.4
20260506131705 76 246 7.8 15.6 0.00 0.04 0.00 28 1010.3
20260506131558 75 315 7.8 13.0 0.00 0.04 0.00 28 1010.6
20260506130706 76 295 7.0 15.6 0.00 0.04 0.00 30 1010.5
20260506130206 75 276 7.0 15.6 0.00 0.04 0.00 28 1010.5
20260506130056 75 248 9.6 16.5 0.00 0.04 0.00 29 1010.8
20260506125705 75 211 7.0 15.6 0.00 0.04 0.00 29 1010.5
20260506125206 75 258 7.8 17.4 0.00 0.04 0.00 28 1010.7
20260506124705 75 284 7.8 17.4 0.00 0.04 0.00 29 1010.6
20260506124557 75 281 7.0 16.5 0.00 0.04 0.00 29 1010.9
20260506124205 75 333 8.7 17.4 0.00 0.04 0.00 29 1010.6
20260506123707 75 279 8.7 14.8 0.00 0.04 0.00 29 1010.7
20260506123053 74 249 8.7 14.8 0.00 0.04 0.00 29 1011.1
20260506122206 74 284 9.6 14.8 0.00 0.04 0.00 30 1010.8
20260506121706 74 304 8.7 18.2 0.00 0.04 0.00 31 1010.7
20260506121552 73 343 8.7 16.5 0.00 0.04 0.00 30 1011.0
20260506121205 74 292 9.6 18.2 0.00 0.04 0.00 30 1010.7
20260506120706 74 250 8.7 18.2 0.00 0.04 0.00 30 1010.8
20260506120229 74 244 8.7 18.2 0.00 0.04 0.00 30 1010.8
20260506120050 73 207 7.8 16.5 0.00 0.04 0.00 30 1011.1
20260506115705 74 305 9.6 18.2 0.00 0.04 0.00 30 1010.9
20260506115205 74 264 9.6 18.2 0.00 0.04 0.00 31 1010.9
20260506114705 73 285 11.3 20.0 0.00 0.04 0.00 30 1011.0
20260506114556 73 252 9.6 18.2 0.00 0.04 0.00 31 1011.3
20260506114206 73 275 11.3 20.9 0.00 0.04 0.00 31 1010.9
20260506113706 73 279 11.3 20.9 0.00 0.04 0.00 32 1011.0
20260506113205 73 263 11.3 18.2 0.00 0.04 0.00 31 1011.0
20260506113052 73 284 13.9 21.7 0.00 0.04 0.00 30 1011.4
20260506112705 74 281 8.7 15.6 0.00 0.04 0.00 30 1011.0
20260506112225 74 255 7.8 15.6 0.00 0.04 0.00 31 1011.0
20260506111705 73 281 8.7 15.6 0.00 0.04 0.00 32 1011.0
20260506111551 73 277 9.6 15.6 0.00 0.04 0.00 32 1011.5
20260506111205 73 263 9.6 16.5 0.00 0.04 0.00 33 1011.1
20260506110705 72 246 10.4 16.5 0.00 0.04 0.00 32 1011.2
20260506110206 72 309 9.6 17.4 0.00 0.04 0.00 32 1011.1
20260506110045 72 200 8.7 16.5 0.00 0.04 0.00 32 1011.5
20260506105705 73 272 10.4 17.4 0.00 0.04 0.00 32 1011.3
20260506105206 73 267 10.4 17.4 0.00 0.04 0.00 31 1011.3
20260506104705 73 253 8.7 14.8 0.00 0.04 0.00 32 1011.4
20260506104553 73 226 10.4 17.4 0.00 0.04 0.00 32 1011.7
20260506104205 73 204 7.8 16.5 0.00 0.04 0.00 32 1011.4
20260506103205 72 263 7.8 16.5 0.00 0.04 0.00 35 1011.6
20260506103042 71 302 6.1 16.5 0.00 0.04 0.00 35 1012.0
20260506102706 72 304 7.8 14.8 0.00 0.04 0.00 36 1011.6
20260506102205 72 155 7.8 13.9 0.00 0.04 0.00 35 1011.6
20260506101705 72 321 7.8 16.5 0.00 0.04 0.00 37 1011.5
20260506101547 71 320 8.7 13.9 0.00 0.04 0.00 36 1011.9
20260506100705 71 280 7.8 17.4 0.00 0.04 0.00 37 1011.5
20260506100233 71 280 8.7 17.4 0.00 0.04 0.00 37 1011.6
20260506100035 70 281 6.1 17.4 0.00 0.04 0.00 37 1011.8
20260506094705 69 263 8.7 19.1 0.00 0.04 0.00 39 1011.4
20260506094533 69 280 9.6 17.4 0.00 0.04 0.00 39 1011.8
20260506094205 69 261 9.6 19.1 0.00 0.04 0.00 41 1011.3
20260506093205 68 255 9.6 17.4 0.00 0.04 0.00 40 1011.3
20260506093027 68 268 10.4 17.4 0.00 0.04 0.00 41 1011.7
20260506092705 68 241 10.4 17.4 0.00 0.04 0.00 42 1011.4
20260506091705 68 294 9.6 16.5 0.00 0.04 0.00 41 1011.3
20260506091523 67 241 9.6 16.5 0.00 0.04 0.00 42 1011.7
20260506091205 67 305 9.6 19.1 0.00 0.04 0.00 44 1011.3
20260506090705 67 250 11.3 19.1 0.00 0.04 0.00 44 1011.3
20260506090205 66 261 11.3 19.1 0.00 0.04 0.00 44 1011.3
20260506090018 65 275 12.2 19.1 0.00 0.04 0.00 44 1011.6
20260506085705 66 246 10.4 19.1 0.00 0.04 0.00 45 1011.3
20260506085206 65 263 11.3 20.0 0.00 0.04 0.00 47 1011.2
20260506084705 65 302 11.3 20.0 0.00 0.04 0.00 46 1011.3
20260506084515 65 263 10.4 20.9 0.00 0.04 0.00 46 1011.5
20260506084205 65 269 11.3 20.0 0.00 0.04 0.00 46 1011.3
20260506083705 65 257 11.3 19.1 0.00 0.04 0.00 46 1011.3
20260506083205 65 267 11.3 19.1 0.00 0.04 0.00 47 1011.3
20260506083011 64 257 10.4 19.1 0.00 0.04 0.00 47 1011.6
20260506082705 65 195 10.4 19.1 0.00 0.04 0.00 47 1011.3
20260506082205 65 294 10.4 16.5 0.00 0.04 0.00 48 1011.3
20260506081706 65 280 8.7 17.4 0.00 0.04 0.00 48 1011.3
20260506081507 64 286 8.7 16.5 0.00 0.04 0.00 49 1011.5
20260506081206 64 319 7.8 17.4 0.00 0.04 0.00 49 1011.3
20260506080705 64 265 8.7 16.5 0.00 0.04 0.00 50 1011.3
20260506080206 64 292 9.6 16.5 0.00 0.04 0.00 50 1011.3
20260506073205 62 263 9.6 16.5 0.00 0.04 0.00 54 1011.3
20260506073055 61 234 9.6 16.5 0.00 0.04 0.00 54 1011.7
20260506072705 62 294 9.6 17.4 0.00 0.04 0.00 55 1011.3
20260506072206 61 295 8.7 17.4 0.00 0.04 0.00 55 1011.4
20260506071705 61 284 7.8 17.4 0.00 0.04 0.00 57 1011.3
20260506071550 60 283 7.0 17.4 0.00 0.04 0.00 56 1011.6
20260506071205 60 248 8.7 14.8 0.00 0.04 0.00 57 1011.3
20260506070706 60 263 9.6 14.8 0.00 0.04 0.00 58 1011.3
20260506070205 59 262 8.7 14.8 0.00 0.04 0.00 58 1011.3
20260506062206 56 271 9.6 18.2 0.00 0.04 0.00 62 1011.0
20260506061705 56 292 9.6 18.2 0.00 0.04 0.00 63 1010.9
20260506061533 55 259 7.8 18.2 0.00 0.04 0.00 64 1011.1
20260506061227 55 279 10.4 17.4 0.00 0.04 0.00 64 1010.8
20260506060705 55 256 9.6 17.4 0.00 0.04 0.00 65 1010.8
20260506060206 55 232 9.6 17.4 0.00 0.04 0.00 66 1010.7
20260506051205 52 268 9.6 13.0 0.00 0.04 0.00 68 1010.2
20260506050706 52 252 7.8 13.0 0.00 0.04 0.00 68 1010.2
20260506050205 51 290 7.0 11.3 0.00 0.04 0.00 68 1010.1
20260506044513 51 296 5.2 9.6 0.00 0.04 0.00 68 1010.4
20260506044206 51 293 5.2 9.6 0.00 0.04 0.00 68 1010.1
20260506043706 51 259 6.1 10.4 0.00 0.04 0.00 68 1010.1
20260506043009 51 261 7.0 10.4 0.00 0.04 0.00 68 1010.5
20260506042705 51 255 5.2 10.4 0.00 0.04 0.00 68 1010.1
20260506042206 51 298 5.2 10.4 0.00 0.04 0.00 68 1010.1
20260506041706 51 228 5.2 10.4 0.00 0.04 0.00 68 1010.0
20260506041508 51 285 4.3 10.4 0.00 0.04 0.00 68 1010.4
20260506041206 51 256 6.1 9.6 0.00 0.04 0.00 68 1010.1
20260506040106 51 244 6.1 8.7 0.00 0.04 0.00 68 1010.6
20260506035706 51 301 6.1 7.8 0.00 0.04 0.00 68 1010.2
20260506035205 51 263 5.2 7.8 0.00 0.04 0.00 68 1010.2
20260506034706 51 275 5.2 8.7 0.00 0.04 0.00 68 1010.1
20260506034505 51 275 4.3 8.7 0.00 0.04 0.00 68 1010.6
20260506033705 52 281 4.3 7.8 0.00 0.04 0.00 68 1010.1
20260506033206 52 279 4.3 7.8 0.00 0.04 0.00 68 1010.1
20260506033004 51 301 2.6 7.0 0.00 0.04 0.00 68 1010.5
20260506032706 52 300 4.3 7.8 0.00 0.04 0.00 68 1010.2
20260506031706 52 274 4.3 7.8 0.00 0.04 0.00 68 1010.2
20260506031502 51 269 4.3 7.8 0.00 0.04 0.00 68 1010.6
20260506031206 52 269 4.3 7.8 0.00 0.04 0.00 68 1010.2
20260506030205 52 281 3.5 9.6 0.00 0.04 0.00 68 1010.3
20260506030001 52 267 3.5 7.8 0.00 0.04 0.00 68 1010.6
20260506025206 52 278 4.3 8.7 0.00 0.04 0.00 68 1010.3
20260506024705 52 248 4.3 9.6 0.00 0.04 0.00 68 1010.3
20260506024602 52 285 4.3 8.7 0.00 0.04 0.00 68 1010.7
20260506023206 52 265 5.2 13.9 0.00 0.04 0.00 68 1010.1
20260506023101 52 247 4.3 13.9 0.00 0.04 0.00 68 1010.5
20260506022206 52 279 6.1 10.4 0.00 0.04 0.00 68 1010.0
20260506021705 52 246 5.2 8.7 0.00 0.04 0.00 68 1010.0
20260506021610 52 275 5.2 10.4 0.00 0.04 0.00 68 1010.3
20260506020705 52 265 2.6 7.8 0.00 0.04 0.00 68 1009.9
20260506020205 52 254 2.6 7.8 0.00 0.04 0.00 68 1010.0
20260506020058 52 246 1.7 7.8 0.00 0.04 0.00 68 1010.2
20260506015705 52 276 3.5 10.4 0.00 0.04 0.00 68 1009.9
20260506015205 53 292 4.3 10.4 0.00 0.04 0.00 68 1009.9
20260506014558 52 271 3.5 12.2 0.00 0.04 0.00 68 1010.2
20260506014206 53 277 7.0 12.2 0.00 0.04 0.00 68 1009.9
20260506013705 53 293 6.1 11.3 0.00 0.04 0.00 68 1009.7
20260506013206 53 263 6.1 10.4 0.00 0.04 0.00 68 1009.8
20260506013104 52 287 5.2 10.4 0.00 0.04 0.00 69 1010.1
20260506012205 53 267 7.0 13.9 0.00 0.04 0.00 69 1009.8
20260506011555 52 324 6.1 14.8 0.00 0.04 0.00 69 1010.2
20260506010705 53 300 8.7 14.8 0.00 0.04 0.00 69 1009.9
20260506010110 52 296 7.8 14.8 0.00 0.04 0.00 69 1010.3
20260506005705 52 246 5.2 9.6 0.00 0.04 0.00 69 1010.0
20260506005205 52 275 4.3 9.6 0.00 0.04 0.00 68 1010.0
20260506004706 52 265 4.3 8.7 0.00 0.04 0.00 68 1010.1
20260506004552 52 334 4.3 7.8 0.00 0.05 0.00 68 1010.4
20260506004205 52 271 4.3 8.7 0.00 0.04 0.00 68 1010.1
20260506003706 53 267 4.3 9.6 0.00 0.04 0.00 68 1010.1
20260506003205 53 303 5.2 11.3 0.00 0.04 0.00 68 1010.1
20260506003047 52 277 3.5 9.6 0.00 0.05 0.00 68 1010.5
20260506001706 53 267 7.0 11.3 0.00 0.05 0.00 68 1010.2
20260506001547 52 266 6.1 11.3 0.00 0.05 0.00 68 1010.6
20260506001205 53 283 7.0 11.3 0.00 0.05 0.00 68 1010.3
20260506000205 53 271 7.0 11.3 0.00 0.05 0.00 68 1010.3
20260506000043 53 294 6.1 12.2 0.00 0.05 0.00 68 1010.7
20260505235705 53 287 6.1 10.4 0.00 0.05 0.00 68 1010.3
20260505235206 53 262 6.1 13.0 0.00 0.05 0.00 68 1010.4
20260505234705 53 279 6.1 13.0 0.00 0.05 0.00 68 1010.4
20260505234601 53 265 6.1 13.0 0.00 0.05 0.00 68 1010.9
20260505234205 53 288 7.0 12.2 0.00 0.05 0.00 68 1010.5
20260505233706 54 265 7.0 10.4 0.00 0.05 0.00 68 1010.5
20260505233205 54 248 6.1 13.0 0.00 0.05 0.00 68 1010.6
20260505233040 53 281 6.1 10.4 0.00 0.05 0.00 68 1010.9
20260505232706 54 250 7.0 13.0 0.00 0.05 0.00 68 1010.7
20260505232206 54 269 7.0 12.2 0.00 0.05 0.00 68 1010.7
20260505231705 54 284 7.0 13.0 0.00 0.05 0.00 68 1010.8
20260505231536 53 266 6.1 12.2 0.00 0.05 0.00 68 1011.1
20260505231206 54 269 7.0 13.0 0.00 0.05 0.00 68 1010.7
20260505230705 54 305 7.8 13.0 0.00 0.05 0.00 68 1010.8
20260505230205 54 263 7.8 13.0 0.00 0.05 0.00 68 1010.9
20260505230035 53 252 8.7 13.0 0.00 0.05 0.00 68 1011.2
20260505225705 54 268 7.0 11.3 0.00 0.05 0.00 68 1010.9
20260505225206 54 271 6.1 11.3 0.00 0.05 0.00 68 1011.0
20260505224535 54 290 6.1 11.3 0.00 0.05 0.00 68 1011.3
20260505223705 54 278 6.1 11.3 0.00 0.05 0.00 68 1011.0
20260505223205 54 245 6.1 11.3 0.00 0.05 0.00 68 1011.1
20260505223029 54 285 5.2 11.3 0.00 0.05 0.00 68 1011.4
20260505221705 55 263 5.2 12.2 0.00 0.05 0.00 68 1011.3
20260505221627 54 279 4.3 12.2 0.00 0.05 0.00 68 1011.6
20260505221205 55 263 4.3 8.7 0.00 0.05 0.00 68 1011.3
20260505220026 54 281 5.2 9.6 0.00 0.05 0.00 68 1011.9
20260505215706 55 254 5.2 9.6 0.00 0.05 0.05 68 1011.6
20260505215206 55 252 5.2 9.6 0.00 0.05 0.05 68 1011.6
20260505214705 55 277 6.1 11.3 0.00 0.05 0.05 68 1011.6
20260505214546 54 283 5.2 9.6 0.00 0.05 0.05 68 1012.0
20260505214206 55 305 6.1 11.3 0.00 0.05 0.05 68 1011.7
20260505213705 55 277 6.1 14.8 0.00 0.05 0.05 68 1011.7
20260505213205 55 257 7.0 14.8 0.00 0.05 0.05 68 1011.7
20260505213022 54 238 5.2 13.0 0.00 0.05 0.05 68 1012.0
20260505212705 55 252 8.7 14.8 0.00 0.05 0.05 68 1011.7
20260505212205 55 259 8.7 13.0 0.00 0.05 0.05 68 1011.7
20260505211705 55 273 8.7 12.2 0.00 0.05 0.05 68 1011.7
20260505211521 54 288 7.8 12.2 0.00 0.05 0.05 68 1012.0
20260505210705 55 259 7.0 11.3 0.00 0.05 0.05 68 1011.7
20260505210020 54 250 7.0 11.3 0.01 0.05 0.05 68 1012.1
20260505205705 55 273 5.2 13.9 0.01 0.05 0.05 68 1011.8
20260505204705 55 269 3.5 7.8 0.01 0.05 0.05 67 1012.0
20260505204520 54 234 3.5 7.8 0.01 0.05 0.05 67 1012.4
20260505204206 55 248 2.6 7.8 0.01 0.05 0.05 68 1012.1
20260505203705 55 245 2.6 7.0 0.01 0.05 0.05 68 1012.1
20260505203205 55 250 2.6 7.0 0.01 0.05 0.05 67 1012.1
20260505203031 54 228 3.5 7.0 0.01 0.05 0.05 67 1012.5
20260505202705 55 273 2.6 7.8 0.01 0.05 0.05 67 1012.1
20260505202206 55 274 3.5 7.8 0.01 0.05 0.05 68 1012.2
20260505201705 55 321 3.5 7.8 0.01 0.05 0.05 68 1012.2
20260505201524 54 232 3.5 7.8 0.01 0.05 0.05 67 1012.5
20260505201206 55 294 3.5 7.8 0.02 0.05 0.05 67 1012.2
20260505200016 54 281 1.7 7.8 0.02 0.04 0.04 67 1012.4
20260505195705 55 204 4.3 7.8 0.02 0.04 0.04 67 1012.0
20260505195206 55 292 4.3 7.8 0.02 0.04 0.04 67 1011.8
20260505194705 55 247 3.5 7.8 0.02 0.04 0.04 67 1011.6
20260505194515 54 215 3.5 7.0 0.02 0.04 0.04 67 1011.9
20260505194205 55 253 4.3 10.4 0.02 0.04 0.04 67 1011.4
20260505193705 55 252 5.2 10.4 0.02 0.04 0.04 67 1011.2
20260505193205 55 289 5.2 10.4 0.02 0.04 0.04 67 1011.2
20260505193012 55 259 5.2 10.4 0.02 0.04 0.04 67 1011.5
20260505192706 55 263 4.3 7.8 0.02 0.04 0.04 67 1011.3
20260505192206 55 249 3.5 7.8 0.02 0.04 0.04 67 1011.2
20260505191705 55 259 4.3 11.3 0.01 0.03 0.03 67 1011.1
20260505191511 55 285 3.5 7.8 0.02 0.04 0.04 67 1011.4
20260505190705 56 252 5.2 11.3 0.01 0.03 0.03 67 1010.9
20260505190220 55 263 5.2 9.6 0.00 0.02 0.02 67 1011.0
20260505190011 55 273 4.3 9.6 0.00 0.02 0.02 67 1011.2
20260505184706 56 293 7.0 13.9 0.00 0.02 0.02 67 1010.6
20260505184511 55 287 4.3 13.9 0.00 0.02 0.02 67 1011.0
20260505184206 56 251 7.8 13.9 0.00 0.02 0.02 67 1010.7
20260505183706 56 269 7.8 14.8 0.00 0.02 0.02 66 1010.7
20260505183205 56 277 8.7 16.5 0.00 0.02 0.02 66 1010.7
20260505183015 55 265 7.0 14.8 0.00 0.02 0.02 66 1011.0
20260505182705 56 265 10.4 16.5 0.00 0.02 0.02 66 1010.6
20260505181705 56 271 8.7 13.9 0.00 0.02 0.02 66 1010.5
20260505181509 56 242 8.7 13.0 0.00 0.02 0.02 66 1010.9
20260505181205 56 269 8.7 13.9 0.00 0.02 0.02 66 1010.6
20260505180705 57 263 8.7 14.8 0.00 0.02 0.02 66 1010.7
20260505180205 57 269 8.7 14.8 0.00 0.02 0.02 66 1010.7
20260505180009 56 272 7.8 14.8 0.00 0.02 0.02 65 1011.1
20260505175705 57 251 8.7 15.6 0.00 0.02 0.02 65 1010.8
20260505175205 57 263 8.7 19.1 0.00 0.02 0.02 65 1010.7
20260505174705 57 256 9.6 19.1 0.00 0.02 0.02 65 1010.6
20260505174513 57 257 9.6 18.2 0.00 0.02 0.02 65 1010.9
20260505174205 57 244 9.6 17.4 0.00 0.02 0.02 64 1010.6
20260505173705 58 266 9.6 17.4 0.00 0.02 0.02 63 1010.5
20260505173205 58 285 7.8 17.4 0.00 0.02 0.02 63 1010.5
20260505173012 57 259 9.6 17.4 0.00 0.02 0.02 63 1010.8
20260505172705 58 281 7.0 16.5 0.00 0.02 0.02 62 1010.6
20260505172205 59 279 6.1 14.8 0.00 0.02 0.02 61 1010.6
20260505171705 59 223 6.1 14.8 0.00 0.02 0.02 60 1010.6
20260505171512 59 244 4.3 14.8 0.00 0.02 0.02 60 1011.0
20260505170705 60 307 7.8 18.2 0.00 0.02 0.02 58 1010.6
20260505170205 61 283 7.8 18.2 0.00 0.02 0.02 58 1010.6
20260505170009 61 215 8.7 22.6 0.00 0.02 0.02 58 1011.0
20260505165705 62 290 5.2 7.8 0.00 0.02 0.02 60 1010.6
20260505165206 62 216 1.7 6.1 0.00 0.02 0.02 61 1010.1
20260505164705 62 229 1.7 7.8 0.00 0.02 0.02 61 1009.7
20260505164508 62 211 0.0 6.1 0.00 0.04 0.02 61 1010.0
20260505164206 62 163 1.7 7.8 0.01 0.02 0.02 61 1009.4
20260505163705 62 111 1.7 5.2 0.01 0.02 0.02 61 1009.6
20260505163205 62 100 0.9 5.2 0.02 0.02 0.02 62 1009.6
20260505163008 62 76 0.0 5.2 0.02 0.04 0.02 62 1010.0
20260505162705 62 153 1.7 5.2 0.02 0.03 0.02 62 1009.6
20260505162233 62 220 0.9 6.1 0.02 0.03 0.02 63 1009.6
20260505161705 62 211 1.7 6.1 0.02 0.03 0.02 63 1009.6
20260505161506 62 201 0.0 6.1 0.02 0.04 0.02 63 1010.0
20260505160706 63 241 0.9 3.5 0.02 0.04 0.02 63 1009.8
20260505160205 63 229 0.9 6.1 0.02 0.04 0.02 64 1009.8
20260505153206 63 115 1.7 7.0 0.00 0.06 0.01 60 1009.9
20260505153004 63 189 0.9 5.2 0.00 0.06 0.01 60 1010.2
20260505152705 63 23 1.7 7.0 0.00 0.06 0.01 59 1009.9
20260505152206 64 212 0.9 7.0 0.00 0.06 0.01 58 1009.9
20260505151705 64 71 1.7 7.8 0.00 0.06 0.01 58 1009.8
20260505151504 63 141 0.9 5.2 0.00 0.06 0.01 57 1010.2
20260505151206 64 103 2.6 7.8 0.00 0.06 0.01 57 1009.8
20260505150705 64 126 2.6 8.7 0.00 0.06 0.01 57 1009.8
20260505150205 64 59 2.6 8.7 0.00 0.06 0.01 56 1009.8